This demonstration page uses our WeatherBlox Daily Observations layout. Learn more.

39.01783, -85.05884

Hourly Observations for January 16, 2019

Temp ( °F °C ) Dew Point ( °F °C ) Humidity (%) Winds ( mph kmh ) Pressure ( in mb ) Visibility ( mi km ) Precip ( " mm )
12:52 am 00:52 Cloudy with Mist and Fog 32 0 28 -2.2 85 85 SW 9 15 30.15 1021 6 9.656064 0 0
1:52 am 01:52 Cloudy with Mist and Fog 33 0.6 29 -1.7 85 85 SW 10 17 30.15 1021 5 8.04672 0 0
2:52 am 02:52 Cloudy with Mist and Fog 33 0.6 29 -1.7 85 85 WSW 10 17 30.15 1021 5 8.04672 0 0
3:52 am 03:52 Cloudy with Mist and Fog 33 0.6 30 -1.1 89 89 WSW 8 13 30.15 1021 4 6.437376 0 0
4:40 am 04:40 Cloudy with Light Drizzle 33 0.6 31 -0.6 92 92 WSW 9 15 30.21 1023 2.5 4.02336 0.001 0.001
4:52 am 04:52 Cloudy with Light Drizzle 33 0.6 31 -0.6 92 92 WSW 7 11 30.15 1021 2 3.218688 0.001 0.001
5:08 am 05:08 Cloudy with Light Drizzle 33 0.6 31 -0.6 92 92 SW 8 13 30.21 1023 1 1.609344 0.001 0.001
5:47 am 05:47 Cloudy with Light Drizzle 34 1 30 -1 87 87 WSW 6 9 30.24 1024 0.75 1.207008 0.001 0.001
5:52 am 05:52 Cloudy with Light Drizzle 33 0.6 31 -0.6 92 92 WSW 5 7 30.18 1022 0.75 1.207008 0.001 0.001
6:44 am 06:44 Cloudy with Light Drizzle 33 0.6 31 -0.6 92 92 WSW 5 7 30.24 1024 1 1.609344 0.001 0.001
6:52 am 06:52 Cloudy with Light Drizzle 33 0.6 31 -0.6 92 92 WSW 5 7 30.21 1023 1 1.609344 0.001 0.001
7:02 am 07:02 Cloudy with Light Drizzle 33 0.6 31 -0.6 92 92 WSW 5 7 30.27 1025 1 1.609344 0.01 0.254
7:34 am 07:34 Cloudy with Light Snow 33 0.6 31 -0.6 92 92 WSW 5 7 30.27 1025 0.75 1.207008 0.01 0.254
7:52 am 07:52 Cloudy with Light Snow 33 0.6 31 -0.6 92 92 W 5 7 30.21 1023 0.75 1.207008 0.02 0.508
8:19 am 08:19 Cloudy with Mist and Fog 33 0.6 31 -0.6 92 92 W 7 11 30.27 1025 0.75 1.207008 0.001 0.001
8:52 am 08:52 Cloudy with Mist and Fog 33 0.6 31 -0.6 92 92 W 3 6 30.21 1023 4 6.437376 0.001 0.001
9:52 am 09:52 Cloudy with Mist and Fog 34 1.1 31 -0.6 89 89 W 5 7 30.24 1024 5 8.04672 0 0
10:52 am 10:52 Cloudy 34 1.1 30 -1.1 85 85 W 5 7 30.27 1025 7 11.265408 0 0
11:31 am 11:31 Cloudy 34 1.1 30 -1.1 85 85 W 7 11 30.33 1027 8 12.874752 0 0
11:52 am 11:52 Cloudy 34 1.1 30 -1.1 85 85 W 6 9 30.27 1025 9 14.484096 0 0
12:52 pm 12:52 Cloudy 34 1.1 29 -1.7 82 82 WNW 7 11 30.24 1024 10 16.09344 0 0
1:52 pm 13:52 Cloudy 34 1.1 29 -1.7 82 82 VRB 3 6 30.24 1024 10 16.09344 0.001 0.001
2:33 pm 14:33 Cloudy with Light Snow 34 1.1 29 -1.7 82 82 W 7 11 30.3 1026 9 14.484096 0.001 0.001
2:52 pm 14:52 Cloudy 34 1.1 29 -1.7 82 82 W 6 9 30.24 1024 10 16.09344 0.001 0.001
3:52 pm 15:52 Cloudy 35 1.7 28 -2.2 76 76 NW 6 9 30.24 1024 10 16.09344 0 0
4:52 pm 16:52 Cloudy 35 1.7 27 -2.8 72 72 W 3 6 30.27 1025 10 16.09344 0 0
5:52 pm 17:52 Cloudy 34 1.1 28 -2.2 79 79 NNE 7 11 30.24 1024 10 16.09344 0 0
6:52 pm 18:52 Cloudy 34 1.1 28 -2.2 79 79 NE 6 9 30.27 1025 10 16.09344 0 0
7:52 pm 19:52 Cloudy 34 1.1 28 -2.2 79 79 E 5 7 30.27 1025 9 14.484096 0 0
8:52 pm 20:52 Cloudy 34 1.1 28 -2.2 79 79 E 7 11 30.27 1025 7 11.265408 0 0
9:52 pm 21:52 Cloudy 33 0.6 29 -1.7 85 85 E 5 7 30.27 1025 7 11.265408 0 0
10:52 pm 22:52 Cloudy with Mist and Fog 33 0.6 29 -1.7 85 85 ESE 6 9 30.27 1025 6 9.656064 0 0
11:52 pm 23:52 Cloudy with Light Drizzle 33 0.6 30 -1.1 89 89 SE 8 13 30.27 1025 6 9.656064 0.001 0.001

Powered by AerisWeather